Fort Lewis, WA
on Tuesday, December 4, 2012

Tuesday
Previous Day Next Day
Daily Summary
 ActualAverage (KOLM)Record (KOLM)
Temperature
Mean Temperature °F 39°F  
Max Temperature 52°F 45°F 56°F (1989)
Min Temperature 44°F 33°F 6°F (1994)
Degree Days
Heating Degree Days 17 26  
Month to date heating degree days 102  
Since 1 July heating degree days 1547  
Cooling Degree Days 0 0  
Month to date cooling degree days 0  
Year to date cooling degree days 106  
Moisture
Dew Point 45°F   
Average Humidity 90    
Maximum Humidity 100    
Minimum Humidity 82    
Precipitation
Precipitation 0.54 in 0.28 in 2.27 in (1989)
Month to date precipitation 1.13  
Year to date precipitation 43.67  
Wind
Wind Speed 9 mph   
Max Wind Speed 17 mph   
Max Gust Speed 23 mph   
Visibility 9 miles   
Events Rain   

Key: T is trace of precipitation, MM is missing value
Source: NWS Daily Summary
Time(PST)TemperatureDew PointHumidity Pressure Visibility Wind DirectionWind SpeedGust SpeedPrecipitationEvents Conditions
12:06 AM 48.2°F 42.8°F 82% 29.62 in 10.0 miles SE 8.1 mph - N/A   Light Drizzle
12:58 AM 47.1°F 44.1°F 89% 29.59 in 6.0 miles SE 5.8 mph - 0.11 in Rain Light Rain
1:58 AM 46.2°F 43.3°F 90% 29.56 in 5.0 miles East 4.6 mph - 0.14 in Rain Light Rain
2:22 AM 46.4°F 42.8°F 87% 29.55 in 7.0 miles ENE 3.5 mph - N/A   Overcast
2:58 AM 45.5°F 44.1°F 95% 29.57 in 10.0 miles South 2.3 mph - 0.02 in   Overcast
3:43 AM 44.6°F 44.6°F 100% 29.54 in 10.0 miles SE 6.9 mph - N/A   Overcast
3:58 AM 45.1°F 44.6°F 98% 29.56 in 10.0 miles SE 10.4 mph - 0.01 in   Overcast
4:58 AM 52.3°F 48.2°F 86% 29.59 in 10.0 miles SSE 17.3 mph 20.7 mph N/A   Overcast
5:33 AM 51.8°F 50.0°F 94% 29.59 in 10.0 miles SSE 15.0 mph - N/A   Overcast
5:58 AM 51.8°F 50.0°F 94% 29.62 in 10.0 miles SSE 10.4 mph - N/A   Overcast
6:21 AM 51.8°F 50.0°F 94% 29.63 in 10.0 miles South 10.4 mph - N/A   Light Drizzle
6:23 AM 51.8°F 50.0°F 94% 29.63 in 10.0 miles South 8.1 mph - N/A   Light Drizzle
6:43 AM 51.8°F 50.0°F 94% 29.65 in 10.0 miles SSE 10.4 mph - N/A   Light Drizzle
6:58 AM 51.8°F 50.4°F 95% 29.68 in 10.0 miles SSE 12.7 mph - 0.02 in   Light Drizzle
7:25 AM 51.8°F 50.0°F 94% 29.68 in 7.0 miles South 13.8 mph 19.6 mph N/A   Overcast
7:27 AM 51.8°F 50.0°F 94% 29.68 in 7.0 miles South 13.8 mph 19.6 mph N/A Rain Light Rain
7:55 AM 51.8°F 48.2°F 88% 29.69 in 10.0 miles South 11.5 mph 23.0 mph N/A   Overcast
7:58 AM 50.9°F 48.2°F 90% 29.72 in 10.0 miles South 10.4 mph 23.0 mph 0.07 in   Overcast
8:19 AM 50.0°F 48.2°F 94% 29.71 in 10.0 miles South 10.4 mph - N/A Rain Light Rain
8:40 AM 50.0°F 48.2°F 94% 29.72 in 10.0 miles South 12.7 mph - N/A   Overcast
8:56 AM 50.0°F 46.4°F 87% 29.73 in 10.0 miles South 12.7 mph 18.4 mph N/A   Mostly Cloudy
9:56 AM 50.0°F 46.4°F 87% 29.76 in 10.0 miles South 11.5 mph - N/A   Scattered Clouds
10:23 AM 50.0°F 46.4°F 87% 29.77 in 10.0 miles South 11.5 mph - N/A   Light Drizzle
10:46 AM 50.0°F 46.4°F 87% 29.78 in 10.0 miles South 8.1 mph - N/A   Overcast
10:56 AM 50.0°F 46.4°F 87% 29.78 in 10.0 miles SSE 12.7 mph - N/A   Mostly Cloudy
11:50 AM 50.0°F 46.4°F 87% 29.77 in 10.0 miles South 9.2 mph - N/A   Light Drizzle
11:55 AM 50.0°F 46.4°F 87% 29.77 in 10.0 miles South 8.1 mph - N/A   Unknown
12:01 PM 50.0°F 46.4°F 87% 29.77 in 10.0 miles South 9.2 mph - N/A   Unknown
12:38 PM 50.0°F 46.4°F 87% 29.77 in 10.0 miles South 9.2 mph - N/A Rain Light Rain
12:50 PM 50.0°F 44.6°F 82% 29.77 in 10.0 miles South 10.4 mph - N/A   Overcast
12:55 PM 50.0°F 46.4°F 87% 29.76 in 10.0 miles South 9.2 mph - N/A   Overcast
1:28 PM 50.0°F 44.6°F 82% 29.75 in 10.0 miles SSE 10.4 mph - N/A   Overcast
1:54 PM 48.2°F 46.4°F 93% 29.76 in 10.0 miles SSW 10.4 mph - N/A   Light Drizzle
1:55 PM 48.2°F 46.4°F 93% 29.76 in 10.0 miles South 10.4 mph - N/A   Light Drizzle
2:03 PM 48.2°F 46.4°F 93% 29.75 in 10.0 miles SSE 9.2 mph - N/A   Overcast
2:15 PM 48.2°F 46.4°F 93% 29.75 in 10.0 miles SSE 9.2 mph - N/A   Overcast
3:31 PM 50.0°F 46.4°F 87% 29.76 in 10.0 miles South 9.2 mph - N/A   Light Drizzle
4:58 PM 48.6°F 45.3°F 89% 29.75 in 10.0 miles SSE 4.6 mph - N/A   Overcast
5:58 PM 48.6°F 43.3°F 82% 29.75 in 10.0 miles SE 11.5 mph - N/A   Overcast
6:59 PM 48.2°F 42.8°F 82% 29.75 in 10.0 miles South 6.9 mph - N/A   Light Drizzle
7:22 PM 46.4°F 44.6°F 93% 29.77 in 5.0 miles SSW 16.1 mph 20.7 mph N/A Rain Light Rain
7:34 PM 46.4°F 42.8°F 87% 29.76 in 6.0 miles SSW 12.7 mph 23.0 mph N/A Rain Light Rain
7:58 PM 45.9°F 42.8°F 89% 29.78 in 10.0 miles South 10.4 mph - 0.11 in   Light Drizzle
8:58 PM 45.5°F 42.4°F 89% 29.78 in 10.0 miles South 8.1 mph - 0.03 in   Partly Cloudy
9:40 PM 44.6°F 42.8°F 93% 29.81 in 6.0 miles SSW 5.8 mph - N/A Rain Light Rain
9:45 PM 44.6°F 42.8°F 93% 29.81 in 4.0 miles South 5.8 mph - N/A Rain Light Rain
9:55 PM 44.6°F 42.8°F 93% 29.81 in 8.0 miles South 9.2 mph - N/A Rain Light Rain
10:02 PM 46.4°F 42.8°F 87% 29.82 in 10.0 miles South 9.2 mph - N/A   Mostly Cloudy
10:57 PM 44.6°F 42.8°F 93% 29.85 in 9.0 miles SW 8.1 mph - N/A   Mostly Cloudy
10:58 PM 45.3°F 42.1°F 88% 29.85 in 9.0 miles SW 6.9 mph - 0.01 in   Mostly Cloudy
11:03 PM 44.6°F 42.8°F 93% 29.85 in 5.0 miles SW 4.6 mph - N/A Rain Light Rain
11:13 PM 44.6°F 42.8°F 93% 29.86 in 10.0 miles South 8.1 mph - N/A   Overcast
11:18 PM 44.6°F 41.0°F 87% 29.86 in 10.0 miles SSE 10.4 mph - N/A   Overcast
11:52 PM 44.6°F 41.0°F 87% 29.89 in 10.0 miles SSW 8.1 mph - N/A Rain Light Rain
11:58 PM 44.1°F 41.4°F 90% 29.89 in 7.0 miles South 8.1 mph - 0.02 in Rain Light Rain
Moon Phase
Dec. 04 Dec. 06 Dec. 13 Dec. 20 Dec. 28
Sunrise:07:39 AM (PST) Moon Rise:10:30 PM (PST)12/4
Sunset:04:21 PM (PST) Moon Set:11:22 AM (PST)12/4

Copyright © 2014 The Weather Underground, Inc.